DECAYED

OBJECT DF, 58696 (Decayed)

Orbit data source: Space-Track

You're viewing an uncataloged RSO

Recently launched and/or uncataloged RSOs may have evolving metadata. Metadata may include the following, but is not limited to: Owner, Manufacturer, Bus, Motor, and Mission.

OBJECT DF, 58696 was a satellite in LEO that was launched on Sat, 11 Nov 2023 UTC via an FALCON 9 launch vehicle from the Air Force Western Test Range (AFWTR). Unknown objects in Earth's orbit typically refer to objects detected orbiting the Earth but have not yet been identified or cataloged. These objects could be anything from previously untracked satellites, spent rocket stages, debris from satellite collisions, or even natural meteoroids temporarily captured by Earth's gravity. This object's orbit decayed before it could be identified.

Not visible in the next 10 days
Identifier
58696, 2023-174DF
Orbit
Decayed
Country
Flag of TBDTBD
Related business
None
Manufacturer
Unknown
Mission
Decayed Commercial Microgravity
Bus & Motor
Unknown
Mass
Unknown
Launch date (UTC)
2023-11-11 (3 years ago)
Launch vehicle
FALCON 9
Launch site
Air Force Western Test Range (AFWTR)
Object type
Unknown
Shape & HBR
Box, 0.2 m
Radar Cross Section
0.035 m², Medium (>0.1 m² and < 1m²)

Expand to show TLE details & history
Last TLE update: 1 year ago

TLE from 1 year ago
0 OBJECT DF
1 58696U 23174DF  25148.35653433  .06249216  23503-5  11407-2 0  9996
2 58696  97.1456 224.2269 0014292 256.8233 103.1468 16.32119036 79902
Epoch: 2025-05-28T08:33Z
TLE epoch observation values (Epoch: 2025-05-28T08:33:24.566Z)
Latitude
-0.00005°
Longitude
-150.2666°
Altitude
192.247 km
Speed
7.79 km/s
True Right ascension
14h 56m 54s
True Declination
0° 00' 00"
Sunlit
Object was in full shadow at epoch
Visualization orbit readout
Latitude
Unknown
Longitude
Unknown
Altitude
Unknown
Speed
Unknown
Apparent Right ascension
Unknown
Apparent Declination
Unknown
Sunlit
N/A
Visualization observer readout
Local Sidereal Time
16:15:40
Azimuth
Unknown
Elevation
Unknown
Doppler factor
Unknown
Orbital elements
Apogee altitude
193.036 km
Perigee altitude
174.28 km
Semi-major axis
6,561.795 km
Eccentricity
0.00143
Inclination
97.1456°
RAAN
224.2269°
Arg. of periapsis
256.8233°
True anomaly
103.30622°
Mean anomaly
103.1468°
Eccentric anomaly
103.22651°
Mean motion
4.08328 °/min
Orbital period
88.16 mins
BSTAR
0.0011407
Loading maneuver chart data...
Computing Atmospheric mass density...
Loading historical data...
Loading historical data...
Loading historical data...
Loading historical data...
Loading historical data...
Loading historical data...
Loading historical data...

Documentation

Showing up to 5 results
|